GPM-CORE

Last updated on Mon Dec 08 2025 00:02:31 GMT+0000 (Coordinated Universal Time)

1 39574U 14009C 25341.25365119 .00021316 00000+0 44708-3 0 9997 2 39574 64.9740 231.0644 0010523 269.7953 90.1982 15.45363162668164
UTC large
Height (km)
Speed (km/s)
/
Latitude / Longitude
Inclination (degrees)
Orbital Period (minutes)
Azimuth
Elevation
Range (km)
Doppler Factor

Next 0 passes for location: London (51.5072 / 0.1276)

Sorry there are no passes over London.